Lexington Weather

Lexington, Massachusetts, USA

29°F
12/12/2019 3:52pm 
  • Lexington Conditions: Partly cloudy
  • Temperature: 28.6°F / -1.9°CColder 0.7°F than last hour.
  • Dew Point: 20.1°FIncreased 0.3°Fsince last hour.
  • Relative Humidity: 70%Increased 3.0% since last hour.
  • Wind: Wind from SSW SSW 1 mph, 10-min avg: 1 mph, gust: 3 mph
  • Barometer: 30.65 in Steady
  • Visibility: 10 miles
  • Snow Today: 0.0 in
  •   

Regional Weather Roundup
for Boston / Norton, MA

        
000
ASUS41 KBOX 102001
RWRBOX

REGIONAL WEATHER ROUNDUP
NATIONAL WEATHER SERVICE BOSTON/NORTON MA
300 PM EST TUE DEC 10 2019

NOTE:  "FAIR" INDICATES FEW OR NO CLOUDS BELOW 12,000 FEET WITH NO 
SIGNIFICANT WEATHER AND/OR OBSTRUCTIONS TO VISIBILITY.

MAZALL-102100-
EASTERN MASSACHUSETTS
  
CITY           SKY/WX    TMP DP  RH WIND       PRES   REMARKS
BOSTON         LGT RAIN  59  52  77 SW16      29.73R                  
BEVERLY        LGT RAIN  57  51  80 SW12      29.72R                  
LAWRENCE       LGT RAIN  56  50  80 SW13      29.72R                  
BEDFORD        LGT RAIN  56  51  84 SW9       29.72R                  
BLUE HILL        N/A     53  52  96 SW15G24   29.73R                  
NORWOOD        LGT RAIN  59  53  80 SW8       29.74R                  
MARSHFIELD     NOT AVBL                                               
PLYMOUTH       LGT RAIN  55  54  96 SW12      29.77R FOG              
TAUNTON        LGT RAIN  56  53  90 SW6       29.76S FOG              
NEW BEDFORD    CLOUDY    55  53  93 SW12      29.77S                  
$$

MAZALL-102100-
CAPE COD AND THE ISLANDS
  
CITY           SKY/WX    TMP DP  RH WIND       PRES   REMARKS
FALMOUTH       DRIZZLE   55  55 100 SW22G36   29.78S                  
HYANNIS        NOT AVBL                                               
CHATHAM        LGT RAIN  50  50 100 SW8G23    29.81R FOG              
PROVINCETOWN   CLOUDY    51  51 100 SW17G25   29.77R FOG              
NANTUCKET      CLOUDY    52  49  89 SW12      29.83R FOG              
MARTHAS VNYRD  LGT RAIN  57  55  93 SW17G26   29.82R FOG              
$$
 
MAZALL-102100-
CENTRAL AND WESTERN MASSACHUSETTS
  
CITY           SKY/WX    TMP DP  RH WIND       PRES   REMARKS
WORCESTER      LGT RAIN  51  49  92 SW16      29.73R                  
FITCHBURG      CLOUDY    54  47  77 VRB7      29.73R                  
ORANGE         CLOUDY    53  49  86 S9        29.73R                  
SPRINGFIELD    NOT AVBL                                               
WESTFIELD      LGT RAIN  52  49  89 S9        29.72F                  
NORTH ADAMS    LGT RAIN  45  40  82 VRB7G21   29.74R                  
PITTSFIELD     CLOUDY    49  46  90 SW7       29.70F                  
$$
 
RIZALL-102100-
RHODE ISLAND
  
CITY           SKY/WX    TMP DP  RH WIND       PRES   REMARKS
PROVIDENCE     RAIN      55  54  96 SW8       29.78S FOG              
NEWPORT        LGT RAIN  54  52  93 SW8       29.79S FOG              
BLOCK ISLAND   CLOUDY    52  51  97 SW16      29.82R FOG              
SMITHFIELD     LGT RAIN  54  53  97 SW5       29.76F FOG              
WESTERLY       LGT RAIN  55  51  86 SW12G20   29.82R FOG              
$$
 
CTZALL-102100-
CONNECTICUT
  
CITY           SKY/WX    TMP DP  RH WIND       PRES   REMARKS
BRADLEY INTL   LGT RAIN  50  49  96 S8        29.74S FOG              
HARTFORD       CLOUDY    54  52  93 S6        29.77R FOG              
BRIDGEPORT     CLOUDY    50  48  93 SW5       29.80R FOG              
DANBURY        LGT RAIN  53  51  93 SW8       29.79S                  
GROTON         LGT RAIN  50  50 100 SW9       29.81R FOG              
NEW HAVEN      CLOUDY    53  50  89 SW7       29.80R FOG              
CHESTER        LGT RAIN  54  54 100 SW10      29.79R                  
MERIDEN        CLOUDY    53  51  93 S8        29.78R FOG              
WILLIMANTIC    LGT RAIN  54  52  93 S7        29.78R                  
OXFORD         LGT RAIN  52  52 100 SW7       29.78S                  
$$

MEZ002-015-021-024-NHZ003-005-008-011-012-014-VTZ005-008-102100-
NORTHERN NEW ENGLAND
  
CITY           SKY/WX    TMP DP  RH WIND       PRES   REMARKS
PORTLAND ME    CLOUDY    57  49  74 SW7       29.66R                  
BANGOR ME      LGT RAIN  51  49  92 S8        29.62R                  
CONCORD NH     CLOUDY    55  46  71 SW10      29.69R                  
MANCHESTER NH  CLOUDY    54  49  83 S8        29.68R                  
NASHUA NH      MOCLDY    54  51  90 VRB3      29.72R                  
PORTSMOUTH NH  NOT AVBL                                               
JAFFREY NH     CLOUDY    50  47  89 S9        29.70R                  
KEENE NH       CLOUDY    47  46  97 CALM      29.70R                  
BURLINGTON VT  MOCLDY    44  28  53 W15G24    29.72R                  
MT. WASHINGTON FRZ RAIN  30  30 100 W63G71      N/A  VSB 1/16WCI  10  
$$

NYZ052-076-102100-
EASTERN NEW YORK
  
CITY           SKY/WX    TMP DP  RH WIND       PRES   REMARKS
ALBANY         LGT RAIN  43  34  70 W18G29    29.79R                  
NEW YORK CITY  CLOUDY    57  51  80 SW12      29.79S                  
$$
 
ANZALL-102100-
MARINE OBSERVATIONS
  
STATION/POSITION TIME  TEMP    WIND        PRES    VSBY  WAVE
                       AIR SEA DIR/SP/G                  HT/PER
                 (UTC) (F)     (DEG/KT/KT) (MB)    (MI)  (FT/S)
BOSTON BUOY      1850   54 48  220/ 12/ 14 1005.8          3/10
BUZZARDS BAY     1900   53     230/ 23/ 24 1008.9R
NANTUCKET SOUND  1940   49 42              1009.7
MASS BAY-STELLWA 1904   50 46  240/ 10/ 12 1004.4R  1 7/8  5/11
ISLE OF SHOALS   1900   56     230/ 19/ 21 1004.3R
S OF BLOCK IS    1930      53                N/A          12/11
$$

......................KEY.........................
  SKY/WX - SKY CONDITION/PRESENT WEATHER
  TMP    - TEMPERATURE IN FAHRENHEIT
  DWPT   - DEWPOINT IN FAHRENHEIT
  RH     - RELATIVE HUMIDITY IN PERCENT
  WIND   - DIRECTION AND SPEED IN MPH
  PRES   - MEAN SEA LEVEL PRESSURE IN INCHES OF HG
  WCI    - WIND CHILL INDEX
  VSB    - VISIBILITY IN MILES
  HX     - HEAT INDEX
  TC     - TEMPERATURE IN CELSIUS
  VRB    - VARIABLE WIND DIRECTION
  N/A    - NOT AVAILABLE
  
      

Other recent Regional Weather Roundups

Thu Dec 12, 3:10pm

Thu Dec 12, 3:00pm

Thu Dec 12, 2:10pm

Thu Dec 12, 2:01pm

Thu Dec 12, 1:10pm

Thu Dec 12, 1:00pm

Thu Dec 12, 12:10pm

Thu Dec 12, 12:00pm

Thu Dec 12, 11:10am

Thu Dec 12, 11:00am

Thu Dec 12, 10:10am

Thu Dec 12, 8:10am

Thu Dec 12, 8:00am

Thu Dec 12, 7:10am

Thu Dec 12, 7:00am

Thu Dec 12, 6:10am

Thu Dec 12, 6:00am

Thu Dec 12, 5:10am

Thu Dec 12, 5:00am

Thu Dec 12, 4:10am

Thu Dec 12, 4:00am

Thu Dec 12, 3:10am

Thu Dec 12, 3:00am

Thu Dec 12, 2:10am

Thu Dec 12, 2:00am

Thu Dec 12, 1:10am

Thu Dec 12, 1:00am

Thu Dec 12, 12:10am

Thu Dec 12, 12:00am

Wed Dec 11, 11:10pm

Wed Dec 11, 11:00pm

Wed Dec 11, 10:10pm

Wed Dec 11, 10:00pm

Wed Dec 11, 9:10pm

Wed Dec 11, 9:00pm

Wed Dec 11, 8:10pm

Wed Dec 11, 8:00pm

Wed Dec 11, 7:10pm

Wed Dec 11, 7:00pm

Wed Dec 11, 6:10pm

Wed Dec 11, 6:00pm

Wed Dec 11, 5:10pm

Wed Dec 11, 5:01pm

Wed Dec 11, 4:10pm

Wed Dec 11, 4:00pm

Wed Dec 11, 3:10pm

Wed Dec 11, 3:01pm

Wed Dec 11, 2:10pm

Wed Dec 11, 2:00pm

Wed Dec 11, 1:10pm

Wed Dec 11, 1:00pm

Wed Dec 11, 12:10pm

Wed Dec 11, 12:00pm

Wed Dec 11, 11:10am

Wed Dec 11, 11:00am

Wed Dec 11, 10:10am

Wed Dec 11, 10:00am

Wed Dec 11, 9:10am

Wed Dec 11, 9:00am

Wed Dec 11, 8:10am

Wed Dec 11, 8:00am

Wed Dec 11, 7:10am

Wed Dec 11, 7:00am

Wed Dec 11, 6:10am

Wed Dec 11, 6:00am

Wed Dec 11, 5:10am

Wed Dec 11, 5:00am

Wed Dec 11, 4:10am

Wed Dec 11, 4:00am

Wed Dec 11, 3:10am

Wed Dec 11, 3:01am

Wed Dec 11, 2:10am

Wed Dec 11, 2:01am

Wed Dec 11, 1:10am

Wed Dec 11, 1:00am

Wed Dec 11, 12:10am

Wed Dec 11, 12:00am

Tue Dec 10, 11:10pm

Tue Dec 10, 11:00pm

Tue Dec 10, 10:10pm

Tue Dec 10, 10:00pm

Tue Dec 10, 9:10pm

Tue Dec 10, 9:01pm

Tue Dec 10, 8:10pm

Tue Dec 10, 8:00pm

Tue Dec 10, 7:10pm

Tue Dec 10, 7:01pm

Tue Dec 10, 6:10pm

Tue Dec 10, 6:01pm

Tue Dec 10, 5:10pm

Tue Dec 10, 5:00pm

Tue Dec 10, 4:10pm

Tue Dec 10, 4:01pm

Tue Dec 10, 3:10pm

Tue Dec 10, 2:10pm

Tue Dec 10, 2:01pm

Tue Dec 10, 1:10pm

Tue Dec 10, 1:00pm

Tue Dec 10, 12:10pm

Tue Dec 10, 12:00pm

Tue Dec 10, 11:10am

Tue Dec 10, 11:00am

Tue Dec 10, 10:10am

Tue Dec 10, 10:00am

Tue Dec 10, 9:10am

Tue Dec 10, 9:01am

Tue Dec 10, 8:10am

Tue Dec 10, 8:00am

Tue Dec 10, 7:10am

Tue Dec 10, 7:00am

Tue Dec 10, 6:10am

Tue Dec 10, 6:00am

Tue Dec 10, 5:10am

Tue Dec 10, 5:00am

Tue Dec 10, 4:10am

Tue Dec 10, 4:00am

Tue Dec 10, 3:10am

Tue Dec 10, 3:00am

Tue Dec 10, 2:10am

Tue Dec 10, 2:01am

Tue Dec 10, 1:10am

Tue Dec 10, 1:00am

Tue Dec 10, 12:10am

Tue Dec 10, 12:01am

Mon Dec 9, 11:10pm

Mon Dec 9, 11:01pm

Mon Dec 9, 10:10pm

Mon Dec 9, 10:00pm

Mon Dec 9, 9:10pm

Mon Dec 9, 9:01pm

Mon Dec 9, 8:10pm

Mon Dec 9, 8:01pm

Mon Dec 9, 7:10pm

Mon Dec 9, 7:00pm

Mon Dec 9, 6:10pm

Mon Dec 9, 6:00pm

Mon Dec 9, 5:10pm

Mon Dec 9, 5:01pm

Mon Dec 9, 4:10pm

Mon Dec 9, 4:01pm

Meta data:

ID: 854162ec-f707-43fe-9ae9-0da5a8d820f4
Link: https://api.weather.gov/products/854162ec-f707-43fe-9ae9-0da5a8d820f4